| time (UTC) | temp C | wind direction | speed KPH | gust KPH | rain 1hr cm | rain 24hr cm | rain mn cm | humidity % | barometer mb |
| 20260503033116 | 12 | 28 | 0.0 | 4.8 | 0.00 | 0.00 | 0.00 | 49 | 1016.5 |
| 20260503031557 | 12 | 28 | 1.6 | 4.8 | 0.00 | 0.00 | 0.00 | 45 | 1016.2 |
| 20260503030105 | 12 | 28 | 0.0 | 6.4 | 0.00 | 0.00 | 0.00 | 46 | 1016.0 |
| 20260503024601 | 13 | 28 | 0.0 | 0.0 | 0.00 | 0.00 | 0.00 | 45 | 1016.0 |
| 20260503023057 | 13 | 28 | 0.0 | 4.8 | 0.00 | 0.00 | 0.00 | 44 | 1015.8 |
| 20260503021601 | 14 | 28 | 0.0 | 3.2 | 0.00 | 0.00 | 0.00 | 43 | 1015.8 |
| 20260503020101 | 15 | 28 | 3.2 | 6.4 | 0.00 | 0.00 | 0.00 | 41 | 1015.8 |
| 20260503014554 | 16 | 28 | 3.2 | 6.4 | 0.00 | 0.00 | 0.00 | 39 | 1015.8 |
| 20260503013053 | 17 | 28 | 3.2 | 9.7 | 0.00 | 0.00 | 0.00 | 38 | 1015.8 |
| 20260503011603 | 17 | 63 | 1.6 | 9.7 | 0.00 | 0.00 | 0.00 | 38 | 1015.9 |
| 20260503010058 | 17 | 360 | 1.6 | 12.9 | 0.00 | 0.00 | 0.00 | 38 | 1016.1 |
| 20260503004552 | 17 | 17 | 3.2 | 9.7 | 0.00 | 0.00 | 0.00 | 38 | 1016.2 |
| 20260503003100 | 17 | 5 | 8.0 | 12.9 | 0.00 | 0.00 | 0.00 | 38 | 1016.3 |
| 20260503001553 | 17 | 119 | 3.2 | 9.7 | 0.00 | 0.00 | 0.00 | 37 | 1016.4 |
| 20260503000050 | 18 | 236 | 1.6 | 4.8 | 0.00 | 0.00 | 0.00 | 39 | 1016.5 |
| 20260502234553 | 18 | 236 | 0.0 | 3.2 | 0.00 | 0.00 | 0.00 | 37 | 1016.6 |
| 20260502233048 | 18 | 250 | 4.8 | 12.9 | 0.00 | 0.00 | 0.00 | 36 | 1016.7 |
| 20260502231548 | 18 | 286 | 6.4 | 11.3 | 0.00 | 0.00 | 0.00 | 37 | 1016.9 |
| 20260502230048 | 18 | 295 | 6.4 | 14.5 | 0.00 | 0.00 | 0.00 | 37 | 1017.0 |
| 20260502224547 | 18 | 198 | 11.3 | 16.1 | 0.00 | 0.00 | 0.00 | 37 | 1017.1 |
| 20260502223046 | 17 | 296 | 1.6 | 8.0 | 0.00 | 0.00 | 0.00 | 39 | 1017.4 |
| 20260502221547 | 18 | 202 | 4.8 | 14.5 | 0.00 | 0.00 | 0.00 | 38 | 1017.6 |
| 20260502220106 | 17 | 344 | 3.2 | 14.5 | 0.00 | 0.00 | 0.00 | 38 | 1017.8 |
| 20260502214543 | 17 | 355 | 6.4 | 12.9 | 0.00 | 0.00 | 0.00 | 39 | 1018.0 |
| 20260502213043 | 17 | 342 | 4.8 | 11.3 | 0.00 | 0.00 | 0.00 | 41 | 1018.3 |
| 20260502211544 | 17 | 286 | 3.2 | 12.9 | 0.00 | 0.00 | 0.00 | 41 | 1018.4 |
| 20260502210043 | 17 | 355 | 9.7 | 16.1 | 0.00 | 0.00 | 0.00 | 40 | 1018.5 |
| 20260502204541 | 17 | 61 | 9.7 | 17.7 | 0.00 | 0.00 | 0.00 | 40 | 1018.5 |
| 20260502203052 | 17 | 202 | 8.0 | 17.7 | 0.00 | 0.00 | 0.00 | 41 | 1018.7 |
| 20260502201540 | 17 | 59 | 8.0 | 20.9 | 0.00 | 0.00 | 0.00 | 43 | 1018.8 |
| 20260502200024 | 16 | 44 | 8.0 | 17.7 | 0.00 | 0.00 | 0.00 | 43 | 1019.1 |
| 20260502194533 | 16 | 11 | 9.7 | 19.3 | 0.00 | 0.00 | 0.00 | 44 | 1019.2 |
| 20260502193019 | 15 | 48 | 14.5 | 19.3 | 0.00 | 0.00 | 0.00 | 45 | 1019.5 |
| 20260502191520 | 15 | 33 | 12.9 | 20.9 | 0.00 | 0.00 | 0.00 | 45 | 1019.6 |
| 20260502190020 | 15 | 28 | 9.7 | 17.7 | 0.00 | 0.00 | 0.00 | 44 | 1019.7 |
| 20260502184521 | 15 | 46 | 14.5 | 19.3 | 0.00 | 0.00 | 0.00 | 44 | 1019.7 |
| 20260502183015 | 15 | 37 | 16.1 | 20.9 | 0.00 | 0.00 | 0.00 | 45 | 1019.7 |
| 20260502181514 | 15 | 17 | 14.5 | 20.9 | 0.00 | 0.00 | 0.00 | 45 | 1019.8 |
| 20260502163014 | 16 | 32 | 17.7 | 24.1 | 0.00 | 0.00 | 0.00 | 43 | 1019.8 |
| 20260502161509 | 15 | 22 | 12.9 | 25.7 | 0.00 | 0.00 | 0.00 | 44 | 1019.8 |
| 20260502151656 | 14 | 30 | 9.7 | 24.1 | 0.00 | 0.00 | 0.00 | 45 | 1019.8 |
| 20260502123012 | 7 | 355 | 6.4 | 12.9 | 0.00 | 0.00 | 0.00 | 58 | 1019.0 |
| 20260502121509 | 7 | 350 | 11.3 | 16.1 | 0.00 | 0.00 | 0.00 | 58 | 1018.8 |
| 20260502114504 | 8 | 355 | 9.7 | 17.7 | 0.00 | 0.00 | 0.00 | 56 | 1018.5 |
| 20260502113002 | 8 | 339 | 12.9 | 19.3 | 0.00 | 0.00 | 0.00 | 56 | 1018.4 |
| 20260502111559 | 7 | 346 | 9.7 | 14.5 | 0.00 | 0.00 | 0.00 | 57 | 1018.1 |
| 20260502110055 | 8 | 312 | 6.4 | 14.5 | 0.00 | 0.00 | 0.00 | 54 | 1017.9 |
| 20260502104553 | 7 | 329 | 4.8 | 12.9 | 0.00 | 0.00 | 0.00 | 55 | 1017.6 |
| 20260502103050 | 7 | 348 | 6.4 | 9.7 | 0.00 | 0.00 | 0.00 | 53 | 1017.3 |
| 20260502101547 | 8 | 328 | 4.8 | 14.5 | 0.00 | 0.00 | 0.00 | 49 | 1017.0 |
| 20260502071526 | 7 | 300 | 6.4 | 12.9 | 0.00 | 0.00 | 0.00 | 46 | 1015.9 |
| 20260502070030 | 8 | 304 | 6.4 | 11.3 | 0.00 | 0.00 | 0.00 | 45 | 1015.7 |
| 20260502064533 | 8 | 323 | 4.8 | 14.5 | 0.00 | 0.00 | 0.00 | 45 | 1015.7 |
| 20260502063018 | 8 | 307 | 8.0 | 12.9 | 0.00 | 0.00 | 0.00 | 44 | 1015.8 |
| 20260502061513 | 10 | 355 | 9.7 | 19.3 | 0.00 | 0.00 | 0.00 | 42 | 1015.7 |
| 20260502060013 | 10 | 345 | 11.3 | 17.7 | 0.00 | 0.00 | 0.00 | 41 | 1015.6 |
| 20260502054509 | 10 | 327 | 11.3 | 19.3 | 0.00 | 0.00 | 0.00 | 39 | 1015.5 |
| 20260502053007 | 12 | 349 | 9.7 | 19.3 | 0.00 | 0.00 | 0.00 | 36 | 1015.5 |
| 20260502051515 | 11 | 329 | 9.7 | 19.3 | 0.00 | 0.00 | 0.00 | 37 | 1015.5 |
| 20260502050006 | 11 | 318 | 14.5 | 24.1 | 0.00 | 0.00 | 0.00 | 36 | 1015.4 |
| 20260502044505 | 10 | 337 | 8.0 | 12.9 | 0.00 | 0.00 | 0.00 | 36 | 1015.4 |
| 20260502043007 | 10 | 350 | 4.8 | 8.0 | 0.00 | 0.00 | 0.00 | 35 | 1015.5 |
| 20260502041505 | 10 | 339 | 3.2 | 8.0 | 0.00 | 0.00 | 0.00 | 35 | 1015.5 |
| 20260502040007 | 10 | 309 | 6.4 | 9.7 | 0.00 | 0.00 | 0.00 | 34 | 1015.4 |
| 20260502034504 | 12 | 288 | 4.8 | 11.3 | 0.00 | 0.00 | 0.00 | 32 | 1015.4 |